EW6753 Weather Reports


time (UTC)temp
C
wind
direction
speed
KPH
gust
KPH
rain 1hr
cm
rain 24hr
cm
rain mn
cm
humidity
%
barometer
mb
20240227190002 2 310 16.1 33.8 0.00 0.00 0.00 73 996.0
20240227185503 3 317 12.9 27.4 0.00 0.00 0.00 73 995.8
20240227185002 3 316 12.9 24.1 0.00 0.00 0.00 74 995.3
20240227184523 3 302 14.5 33.8 0.00 0.00 0.00 74 995.5
20240227184002 3 293 19.3 38.6 0.00 0.00 0.00 74 995.7
20240227183502 3 302 16.1 38.6 0.00 0.00 0.00 74 995.5
20240227183002 4 316 11.3 27.4 0.00 0.00 0.00 74 995.4
20240227182503 4 313 11.3 27.4 0.00 0.00 0.00 74 995.4
20240227182003 5 304 14.5 32.2 0.00 0.00 0.00 73 995.4
20240227181503 5 313 16.1 32.2 0.00 0.00 0.00 71 995.0
20240227181003 6 324 12.9 32.2 0.00 0.00 0.00 70 994.6
20240227180503 7 323 11.3 32.2 0.00 0.00 0.00 68 994.4
20240227180003 8 320 9.7 24.1 0.00 0.00 0.00 67 994.0
20240227175502 8 317 11.3 29.0 0.00 0.00 0.00 67 994.0
20240227175003 8 306 14.5 37.0 0.00 0.00 0.00 68 993.8
20240227174502 8 297 17.7 37.0 0.00 0.00 0.00 65 993.7
20240227174002 9 300 16.1 32.2 0.00 0.00 0.00 64 993.4
20240227173502 10 298 12.9 29.0 0.00 0.00 0.00 61 993.2
20240227173002 10 298 12.9 27.4 0.00 0.00 0.00 60 993.1
20240227172502 10 299 12.9 27.4 0.00 0.00 0.00 60 993.0
20240227172002 10 304 11.3 27.4 0.00 0.00 0.00 59 993.0
20240227171524 10 300 9.7 22.5 0.00 0.00 0.00 60 992.9
20240227171003 10 292 11.3 22.5 0.00 0.00 0.00 60 992.7
20240227170503 10 283 11.3 22.5 0.00 0.00 0.00 61 992.6
20240227170024 10 280 11.3 22.5 0.00 0.00 0.00 60 992.5
20240227165503 10 297 8.0 20.9 0.00 0.00 0.00 61 992.2
20240227165003 10 302 6.4 19.3 0.00 0.00 0.00 61 991.9
20240227164503 10 299 4.8 12.9 0.00 0.00 0.00 62 991.7
20240227164025 10 312 4.8 12.9 0.00 0.00 0.00 62 991.6
20240227163502 9 312 4.8 12.9 0.00 0.00 0.00 63 991.5
20240227163002 9 331 3.2 12.9 0.00 0.00 0.00 63 991.4
20240227162502 8 10 3.2 12.9 0.00 0.00 0.00 63 991.2
20240227162023 8 14 3.2 12.9 0.00 0.00 0.00 64 991.0
20240227161523 8 40 3.2 11.3 0.00 0.00 0.00 65 991.0
20240227161002 8 47 4.8 11.3 0.00 0.00 0.00 65 990.8
20240227160523 8 52 6.4 14.5 0.00 0.00 0.00 66 990.7
20240227160003 8 60 6.4 14.5 0.00 0.00 0.00 66 990.8
20240227155502 7 49 6.4 16.1 0.00 0.00 0.00 67 990.8
20240227155023 7 24 4.8 16.1 0.00 0.00 0.00 68 990.9
20240227154502 7 7 4.8 16.1 0.00 0.00 0.00 68 991.1
20240227154003 7 358 4.8 9.7 0.00 0.00 0.00 69 991.3
20240227153503 7 339 4.8 9.7 0.00 0.00 0.00 69 991.4
20240227153004 7 339 3.2 9.7 0.00 0.00 0.00 70 991.6
20240227152502 6 330 3.2 9.7 0.00 0.00 0.00 71 991.7
20240227152024 6 324 4.8 11.3 0.00 0.00 0.00 71 991.7
20240227151503 6 354 4.8 11.3 0.00 0.00 0.00 71 991.5
20240227151003 6 21 4.8 9.7 0.00 0.00 0.00 72 991.4
20240227150502 6 13 4.8 12.9 0.00 0.00 0.00 72 991.2
20240227150002 5 25 4.8 12.9 0.00 0.00 0.00 74 991.1
20240227145502 5 53 6.4 14.5 0.00 0.00 0.00 75 991.0
20240227145003 5 49 6.4 14.5 0.00 0.00 0.00 75 991.0
20240227144503 5 39 4.8 11.3 0.00 0.00 0.00 76 991.1
20240227144003 4 48 4.8 11.3 0.00 0.00 0.00 77 991.1
20240227143524 4 58 4.8 11.3 0.00 0.00 0.00 78 991.1
20240227143003 3 48 3.2 6.4 0.00 0.00 0.00 79 991.0
20240227142503 3 27 3.2 8.0 0.00 0.00 0.00 79 991.0
20240227142023 3 19 3.2 8.0 0.00 0.00 0.00 81 991.1
20240227141502 2 34 1.6 6.4 0.00 0.00 0.00 82 991.3
20240227141023 2 58 1.6 4.8 0.00 0.00 0.00 83 991.0
20240227140502 2 62 1.6 4.8 0.00 0.00 0.00 84 991.1
20240227140024 2 68 1.6 3.2 0.00 0.00 0.00 85 991.0
20240227135503 1 70 1.6 4.8 0.00 0.00 0.00 86 991.0
20240227135003 1 66 1.6 4.8 0.00 0.00 0.00 87 991.0
20240227134503 1 59 1.6 4.8 0.00 0.00 0.00 88 991.0
20240227134003 0 55 1.6 3.2 0.00 0.00 0.00 87 991.2
20240227133503 0 55 0.0 3.2 0.00 0.00 0.00 87 991.3
20240227133004 0 55 1.6 4.8 0.00 0.00 0.00 87 991.3
20240227132524 0 55 1.6 4.8 0.00 0.00 0.00 87 991.4
20240227132003 0 52 0.0 3.2 0.00 0.00 0.00 86 991.7
20240227131524 0 51 1.6 6.4 0.00 0.00 0.00 86 991.7
20240227131003 1 23 1.6 6.4 0.00 0.00 0.00 87 991.4
20240227130504 0 12 3.2 6.4 0.00 0.00 0.00 88 991.5
20240227130003 0 39 1.6 6.4 0.00 0.00 0.00 89 991.6
20240227125503 0 86 1.6 3.2 0.00 0.00 0.00 87 991.6
20240227125003 0 86 1.6 3.2 0.00 0.00 0.00 88 991.4
20240227124502 0 86 1.6 3.2 0.00 0.00 0.00 88 991.3
20240227124003 0 86 1.6 3.2 0.00 0.00 0.00 88 991.1
20240227123503 0 86 0.0 1.6 0.00 0.00 0.00 88 991.2
20240227123003 0 0 0.0 0.0 0.00 0.00 0.00 88 991.1
20240227122503 0 92 0.0 1.6 0.00 0.00 0.00 88 991.2
20240227122003 0 92 0.0 1.6 0.00 0.00 0.00 87 991.2
20240227121524 0 0 0.0 0.0 0.00 0.00 0.00 87 991.3
20240227121002 0 0 0.0 0.0 0.00 0.00 0.00 87 991.3
20240227120502 0 0 0.0 0.0 0.00 0.00 0.00 87 991.3
20240227120024 0 0 0.0 0.0 0.00 0.00 0.00 87 991.4
20240227115504 0 0 0.0 0.0 0.00 0.00 0.00 87 991.5
20240227115003 0 0 0.0 0.0 0.00 0.00 0.00 87 991.4
20240227114503 0 0 0.0 0.0 0.00 0.00 0.00 87 991.4
20240227114003 0 0 0.0 0.0 0.00 0.00 0.00 87 991.4
20240227113503 0 0 0.0 0.0 0.00 0.00 0.00 87 991.4
20240227113003 0 0 0.0 0.0 0.00 0.00 0.00 86 991.4
20240227112524 0 0 0.0 0.0 0.00 0.00 0.00 86 991.4
20240227112003 0 0 0.0 0.0 0.00 0.00 0.00 86 991.5
20240227111503 0 0 0.0 0.0 0.00 0.00 0.00 86 991.5
20240227111003 0 0 0.0 0.0 0.00 0.00 0.00 86 991.5
20240227110502 0 0 0.0 0.0 0.00 0.00 0.00 86 991.5
20240227110003 1 0 0.0 0.0 0.00 0.00 0.00 86 991.5
20240227105502 1 0 0.0 0.0 0.00 0.00 0.00 86 991.6
20240227105002 0 0 0.0 0.0 0.00 0.00 0.00 85 991.6
20240227104523 1 0 0.0 0.0 0.00 0.00 0.00 85 991.6
20240227104024 1 0 0.0 0.0 0.00 0.00 0.00 85 991.8
20240227103524 1 0 0.0 0.0 0.00 0.00 0.00 85 991.8
20240227103004 1 0 0.0 0.0 0.00 0.00 0.00 84 992.0
20240227102524 1 0 0.0 0.0 0.00 0.00 0.00 84 992.1
20240227102003 1 0 0.0 0.0 0.00 0.00 0.00 84 992.1
20240227101503 1 0 0.0 0.0 0.00 0.00 0.00 84 992.1
20240227101003 1 0 0.0 0.0 0.00 0.00 0.00 84 992.2
20240227100503 1 0 0.0 0.0 0.00 0.00 0.00 83 992.2
20240227100003 1 0 0.0 0.0 0.00 0.00 0.00 83 992.2
20240227095503 1 0 0.0 0.0 0.00 0.00 0.00 83 992.1
20240227095002 2 0 0.0 0.0 0.00 0.00 0.00 83 992.2
20240227094502 2 0 0.0 0.0 0.00 0.00 0.00 83 992.3
20240227094002 2 92 0.0 1.6 0.00 0.00 0.00 83 992.3
20240227093502 2 92 0.0 1.6 0.00 0.00 0.00 83 992.4
20240227093003 2 0 0.0 0.0 0.00 0.00 0.00 83 992.4
20240227092503 2 0 0.0 0.0 0.00 0.00 0.00 82 992.4
20240227092003 2 0 0.0 0.0 0.00 0.00 0.00 82 992.4
20240227091503 2 0 0.0 0.0 0.00 0.00 0.00 81 992.3
20240227091003 2 92 0.0 3.2 0.00 0.00 0.00 80 992.4
20240227090524 2 90 0.0 4.8 0.00 0.00 0.00 79 992.4
20240227090025 3 90 1.6 4.8 0.00 0.00 0.00 79 992.3
20240227085503 3 91 0.0 4.8 0.00 0.00 0.00 80 992.3
20240227085025 3 0 0.0 0.0 0.00 0.00 0.00 80 992.5
20240227084503 2 0 0.0 0.0 0.00 0.00 0.00 80 992.7
20240227084003 3 0 0.0 0.0 0.00 0.00 0.00 80 992.7
20240227083502 3 0 0.0 0.0 0.00 0.00 0.00 79 992.9
20240227083003 3 0 0.0 0.0 0.00 0.00 0.00 78 993.0
20240227082502 3 0 0.0 0.0 0.00 0.00 0.00 78 993.0
20240227082003 3 0 0.0 0.0 0.00 0.00 0.00 77 993.1
20240227081503 3 0 0.0 0.0 0.00 0.00 0.00 78 993.2
20240227081003 3 0 0.0 0.0 0.00 0.00 0.00 78 993.3
20240227080503 4 0 0.0 0.0 0.00 0.00 0.00 77 993.4
20240227080004 4 0 0.0 0.0 0.00 0.00 0.00 77 993.5
20240227075503 4 0 0.0 0.0 0.00 0.00 0.00 77 993.5
20240227075003 3 0 0.0 0.0 0.00 0.00 0.00 77 993.4
20240227074503 3 0 0.0 0.0 0.00 0.00 0.00 78 993.4
20240227074003 3 0 0.0 0.0 0.00 0.00 0.00 78 993.4
20240227073502 3 0 0.0 0.0 0.00 0.00 0.00 77 993.5
20240227073002 4 0 0.0 0.0 0.00 0.00 0.00 77 993.5
20240227072502 4 0 0.0 0.0 0.00 0.00 0.00 77 993.5
20240227072025 4 0 0.0 0.0 0.00 0.00 0.00 76 993.5
20240227071503 4 0 0.0 0.0 0.00 0.00 0.00 76 993.7
20240227071003 4 48 1.6 3.2 0.00 0.00 0.00 77 993.7
20240227070524 4 54 1.6 3.2 0.00 0.00 0.00 78 993.7
20240227070024 3 60 0.0 3.2 0.00 0.00 0.00 80 993.8
20240227065503 2 0 0.0 0.0 0.00 0.00 0.00 82 993.8
20240227065003 2 0 0.0 0.0 0.00 0.00 0.00 81 993.9
20240227064503 2 0 0.0 0.0 0.00 0.00 0.00 81 993.9
20240227064003 2 0 0.0 0.0 0.00 0.00 0.00 81 994.0
20240227063503 2 0 0.0 0.0 0.00 0.00 0.00 81 994.0
20240227063002 2 0 0.0 0.0 0.00 0.00 0.00 81 994.0
20240227062523 2 0 0.0 0.0 0.00 0.00 0.00 80 994.1
20240227062003 2 0 0.0 0.0 0.00 0.00 0.00 79 994.1
20240227061503 2 0 0.0 0.0 0.00 0.00 0.00 79 994.1
20240227061003 3 0 0.0 0.0 0.00 0.00 0.00 78 994.0
20240227060503 3 0 0.0 0.0 0.00 0.00 0.00 79 993.9
20240227060003 3 0 0.0 0.0 0.00 0.00 0.00 81 993.9
20240227055503 2 0 0.0 0.0 0.00 0.00 0.00 80 994.0
20240227055003 2 0 0.0 0.0 0.00 0.00 0.00 80 994.0
20240227054503 2 0 0.0 0.0 0.00 0.00 0.00 80 994.1
20240227054003 2 0 0.0 0.0 0.00 0.00 0.00 80 994.1
20240227053524 2 0 0.0 0.0 0.00 0.00 0.00 81 994.2
20240227053003 2 0 0.0 0.0 0.00 0.00 0.00 80 994.1
20240227052503 2 0 0.0 0.0 0.00 0.00 0.00 80 994.3
20240227052003 2 0 0.0 0.0 0.00 0.00 0.00 80 994.2
20240227051503 2 0 0.0 0.0 0.00 0.00 0.00 80 994.2
20240227051024 2 0 0.0 0.0 0.00 0.00 0.00 80 994.2
20240227050502 2 0 0.0 0.0 0.00 0.00 0.00 80 994.3
20240227050003 2 0 0.0 0.0 0.00 0.00 0.00 79 994.3
20240227045503 2 0 0.0 0.0 0.00 0.00 0.00 79 994.4
20240227045002 2 0 0.0 0.0 0.00 0.00 0.00 79 994.4
20240227044502 3 0 0.0 0.0 0.00 0.00 0.00 78 994.5
20240227044003 3 0 0.0 0.0 0.00 0.00 0.00 78 994.5
20240227043503 3 0 0.0 0.0 0.00 0.00 0.00 78 994.4
20240227043003 3 0 0.0 0.0 0.00 0.00 0.00 78 994.4
20240227042503 3 0 0.0 0.0 0.00 0.00 0.00 78 994.5
20240227042003 3 0 0.0 0.0 0.00 0.00 0.00 77 994.5
20240227041503 3 0 0.0 0.0 0.00 0.00 0.00 77 994.6
20240227041003 4 0 0.0 0.0 0.00 0.00 0.00 76 994.5
20240227040503 4 0 0.0 0.0 0.00 0.00 0.00 76 994.5
20240227040003 4 0 0.0 0.0 0.00 0.00 0.00 76 994.5
20240227035524 4 0 0.0 0.0 0.00 0.00 0.00 75 994.5
20240227035003 4 0 0.0 0.0 0.00 0.00 0.00 75 994.5
20240227034503 5 0 0.0 0.0 0.00 0.00 0.00 74 994.5
20240227034002 5 0 0.0 0.0 0.00 0.00 0.00 74 994.5
20240227033504 5 0 0.0 0.0 0.00 0.00 0.00 73 994.5
20240227033003 5 0 0.0 0.0 0.00 0.00 0.00 73 994.5
20240227032503 5 0 0.0 0.0 0.00 0.00 0.00 73 994.5
20240227032004 5 0 0.0 0.0 0.00 0.00 0.00 73 994.6
20240227031504 5 0 0.0 0.0 0.00 0.00 0.00 73 994.5
20240227031003 5 0 0.0 0.0 0.00 0.00 0.00 74 994.6
20240227030503 5 0 0.0 0.0 0.00 0.00 0.00 73 994.7
20240227030003 5 0 0.0 0.0 0.00 0.00 0.00 72 994.7
20240227025504 5 0 0.0 0.0 0.00 0.00 0.00 71 994.7
20240227025003 6 0 0.0 0.0 0.00 0.00 0.00 72 994.8
20240227024503 6 0 0.0 0.0 0.00 0.00 0.00 71 994.8
20240227024004 6 0 0.0 0.0 0.00 0.00 0.00 71 994.7
20240227023504 6 0 0.0 0.0 0.00 0.00 0.00 71 994.8
20240227023024 6 0 0.0 0.0 0.00 0.00 0.00 71 994.8
20240227022503 6 0 0.0 0.0 0.00 0.00 0.00 71 994.8
20240227022003 6 0 0.0 0.0 0.00 0.00 0.00 71 994.7
20240227021524 6 0 0.0 0.0 0.00 0.00 0.00 70 994.7
20240227021003 6 0 0.0 0.0 0.00 0.00 0.00 70 994.7
20240227020503 6 0 0.0 0.0 0.00 0.00 0.00 69 994.7
20240227020003 6 0 0.0 0.0 0.00 0.00 0.00 68 994.7
20240227015503 7 0 0.0 0.0 0.00 0.00 0.00 68 994.7
20240227015003 6 0 0.0 0.0 0.00 0.00 0.00 68 994.8
20240227014503 7 0 0.0 0.0 0.00 0.00 0.00 67 994.8
20240227014004 7 0 0.0 0.0 0.00 0.00 0.00 67 994.8
20240227013503 7 0 0.0 0.0 0.00 0.00 0.00 67 994.9
20240227013003 7 0 0.0 0.0 0.00 0.00 0.00 66 994.9
20240227012524 7 0 0.0 0.0 0.00 0.00 0.00 66 994.9
20240227012024 7 0 0.0 0.0 0.00 0.00 0.00 65 994.8
20240227011503 7 0 0.0 0.0 0.00 0.00 0.00 65 994.9
20240227011003 7 0 0.0 0.0 0.00 0.00 0.00 64 995.0
20240227010503 8 0 0.0 0.0 0.00 0.00 0.00 63 995.0
20240227010003 8 0 0.0 0.0 0.00 0.00 0.00 63 995.0
20240227005524 8 0 0.0 0.0 0.00 0.00 0.00 62 995.1
20240227005003 8 0 0.0 0.0 0.00 0.00 0.00 61 995.0
20240227004503 9 0 0.0 0.0 0.00 0.00 0.00 61 995.0
20240227004024 9 0 0.0 0.0 0.00 0.00 0.00 61 995.0
20240227003503 9 0 0.0 0.0 0.00 0.00 0.00 60 994.9
20240227003003 9 0 0.0 0.0 0.00 0.00 0.00 59 994.9
20240227002503 10 0 0.0 0.0 0.00 0.00 0.00 58 994.8
20240227002003 10 0 0.0 0.0 0.00 0.00 0.00 56 994.7
20240227001524 11 0 0.0 0.0 0.00 0.00 0.00 56 994.7
20240227001024 11 0 0.0 0.0 0.00 0.00 0.00 55 994.6
20240227000503 11 0 0.0 0.0 0.00 0.00 0.00 54 994.5
20240227000003 11 0 0.0 0.0 0.00 0.00 0.00 52 994.5
20240226235503 12 0 0.0 0.0 0.00 0.00 0.00 51 994.5
20240226235003 12 0 0.0 0.0 0.00 0.00 0.00 49 994.5
20240226234503 13 0 0.0 0.0 0.00 0.00 0.00 47 994.5
20240226234003 14 0 0.0 0.0 0.00 0.00 0.00 46 994.4
20240226233503 14 0 0.0 0.0 0.00 0.00 0.00 46 994.4
20240226233003 14 279 1.6 4.8 0.00 0.00 0.00 45 994.4
20240226232503 15 257 1.6 4.8 0.00 0.00 0.00 45 994.5
20240226232003 15 233 1.6 4.8 0.00 0.00 0.00 44 994.5
20240226231503 15 211 0.0 3.2 0.00 0.00 0.00 44 994.5
20240226231003 15 206 0.0 3.2 0.00 0.00 0.00 44 994.4
20240226230524 15 203 1.6 3.2 0.00 0.00 0.00 43 994.3
20240226230002 15 200 1.6 4.8 0.00 0.00 0.00 43 994.4
20240226225503 16 186 1.6 8.0 0.00 0.00 0.00 43 994.3
20240226225003 16 179 1.6 8.0 0.00 0.00 0.00 43 994.2
20240226224503 16 194 1.6 8.0 0.00 0.00 0.00 42 994.2
20240226224003 16 198 3.2 8.0 0.00 0.00 0.00 41 994.2
20240226223503 16 184 3.2 9.7 0.00 0.00 0.00 41 994.2
20240226223003 16 194 3.2 9.7 0.00 0.00 0.00 41 994.3
20240226222503 16 213 3.2 9.7 0.00 0.00 0.00 41 994.2
20240226222024 17 208 3.2 9.7 0.00 0.00 0.00 41 994.3
20240226221503 17 200 3.2 9.7 0.00 0.00 0.00 40 994.3
20240226221003 17 216 3.2 9.7 0.00 0.00 0.00 41 994.3
20240226220524 17 223 3.2 9.7 0.00 0.00 0.00 40 994.2
20240226220024 17 203 3.2 9.7 0.00 0.00 0.00 41 994.3
20240226215524 16 203 3.2 9.7 0.00 0.00 0.00 41 994.2
20240226215004 17 195 3.2 11.3 0.00 0.00 0.00 41 994.3
20240226214503 17 181 3.2 11.3 0.00 0.00 0.00 41 994.3
20240226214003 17 189 4.8 11.3 0.00 0.00 0.00 40 994.3
20240226213503 17 194 4.8 12.9 0.00 0.00 0.00 41 994.3
20240226213003 17 188 4.8 16.1 0.00 0.00 0.00 40 994.4
20240226212503 17 190 4.8 16.1 0.00 0.00 0.00 41 994.5
20240226212004 17 211 3.2 8.0 0.00 0.00 0.00 41 994.5
20240226211503 17 194 3.2 19.3 0.00 0.00 0.00 40 994.5
20240226211003 16 175 4.8 19.3 0.00 0.00 0.00 41 994.5
20240226210524 16 169 4.8 16.1 0.00 0.00 0.00 41 994.6
20240226210003 16 159 4.8 17.7 0.00 0.00 0.00 42 994.6
20240226205503 16 158 6.4 17.7 0.00 0.00 0.00 42 994.6
20240226205024 16 164 6.4 24.1 0.00 0.00 0.00 42 994.7
20240226204504 16 171 6.4 24.1 0.00 0.00 0.00 43 994.9
20240226204003 16 181 6.4 19.3 0.00 0.00 0.00 42 994.9
20240226203503 16 185 6.4 17.7 0.00 0.00 0.00 42 995.0
20240226203004 16 178 8.0 17.7 0.00 0.00 0.00 41 995.0
20240226202503 16 168 8.0 17.7 0.00 0.00 0.00 42 995.0
20240226202005 15 177 8.0 17.7 0.00 0.00 0.00 42 995.1
20240226201503 15 192 6.4 17.7 0.00 0.00 0.00 43 995.3
20240226201003 15 196 6.4 17.7 0.00 0.00 0.00 42 995.5
20240226200503 15 205 4.8 14.5 0.00 0.00 0.00 43 995.6
20240226200003 15 205 4.8 14.5 0.00 0.00 0.00 43 995.7
20240226195503 15 201 4.8 11.3 0.00 0.00 0.00 43 995.7
20240226195003 15 187 4.8 17.7 0.00 0.00 0.00 44 995.8
20240226194524 15 185 6.4 17.7 0.00 0.00 0.00 44 996.0
20240226194003 15 190 6.4 22.5 0.00 0.00 0.00 44 996.1
20240226193503 15 187 4.8 22.5 0.00 0.00 0.00 44 996.2
20240226193003 15 191 3.2 14.5 0.00 0.00 0.00 45 996.2
20240226192503 14 188 6.4 24.1 0.00 0.00 0.00 45 996.2
20240226192003 14 181 9.7 32.2 0.00 0.00 0.00 44 996.2
20240226191503 14 183 9.7 32.2 0.00 0.00 0.00 44 996.2
20240226191003 15 193 6.4 25.7 0.00 0.00 0.00 45 996.3
20240226190524 14 199 6.4 25.7 0.00 0.00 0.00 45 996.4